Location: Alulod
(14.2076°N, 120.8898°E)
Time: 03:13:31
(UTC+00:00)

USA 238 DEB - Pass Details

Date: 19 March 2026
Orbit: 883 x 1328 km, 63.4° (Epoch: 10 January)

Event Time Altitude Azimuth Distance (km) Brightness Sun altitude
Rises 20:30:00 0° 336° (NNW) 4,182 6.6 -22.8°
Reaches altitude 10° 20:32:44 10° 337° (NNW) 3,258 6.1 -22.2°
Maximum altitude 20:40:47 85° 67° (ENE) 1,325 4.1 -20.2°
Drops below altitude 10° 20:49:03 10° 155° (SSE) 3,344 6.5 -18.2°
Sets 20:51:53 0° 155° (SSE) 4,297 7.1 -17.6°
